| time (UTC) | temp C | wind direction | speed KPH | gust KPH | rain 1hr cm | rain 24hr cm | rain mn cm | humidity % | barometer mb |
| 20260503193038 | 15 | 14 | 0.0 | 9.7 | 0.00 | 0.00 | 0.00 | 68 | 1013.2 |
| 20260503191540 | 16 | 219 | 3.2 | 9.7 | 0.00 | 0.00 | 0.00 | 62 | 1013.1 |
| 20260503190042 | 16 | 270 | 3.2 | 8.0 | 0.00 | 0.00 | 0.00 | 62 | 1013.0 |
| 20260503184530 | 16 | 167 | 4.8 | 12.9 | 0.00 | 0.00 | 0.00 | 59 | 1013.1 |
| 20260503183032 | 16 | 246 | 4.8 | 11.3 | 0.00 | 0.00 | 0.00 | 62 | 1013.0 |
| 20260503181528 | 15 | 340 | 1.6 | 8.0 | 0.00 | 0.00 | 0.00 | 68 | 1012.9 |
| 20260503180033 | 15 | 348 | 3.2 | 6.4 | 0.00 | 0.00 | 0.00 | 70 | 1013.1 |
| 20260503174528 | 15 | 268 | 3.2 | 14.5 | 0.00 | 0.00 | 0.00 | 69 | 1013.0 |
| 20260503173025 | 15 | 148 | 1.6 | 9.7 | 0.00 | 0.00 | 0.00 | 67 | 1013.0 |
| 20260503171521 | 14 | 9 | 0.0 | 9.7 | 0.00 | 0.00 | 0.00 | 69 | 1013.0 |
| 20260503081531 | 11 | 5 | 0.0 | 1.6 | 0.00 | 0.00 | 0.00 | 84 | 1011.6 |
| 20260503071513 | 11 | 285 | 0.0 | 6.4 | 0.00 | 0.00 | 0.00 | 82 | 1011.5 |
| 20260503054507 | 12 | 85 | 0.0 | 8.0 | 0.00 | 0.00 | 0.00 | 81 | 1011.7 |
| 20260503053017 | 12 | 69 | 0.0 | 4.8 | 0.00 | 0.00 | 0.00 | 81 | 1011.9 |
| 20260503051505 | 12 | 255 | 0.0 | 6.4 | 0.00 | 0.00 | 0.00 | 80 | 1011.9 |
| 20260503050005 | 12 | 80 | 0.0 | 6.4 | 0.00 | 0.00 | 0.00 | 80 | 1011.9 |
| 20260503044506 | 12 | 92 | 0.0 | 4.8 | 0.00 | 0.00 | 0.00 | 80 | 1011.8 |
| 20260503043005 | 12 | 74 | 0.0 | 6.4 | 0.00 | 0.00 | 0.00 | 80 | 1011.7 |
| 20260503041506 | 12 | 93 | 1.6 | 9.7 | 0.00 | 0.00 | 0.00 | 80 | 1011.5 |
| 20260503040002 | 13 | 46 | 0.0 | 4.8 | 0.00 | 0.00 | 0.00 | 80 | 1011.3 |
| 20260503034501 | 13 | 69 | 0.0 | 8.0 | 0.00 | 0.00 | 0.00 | 80 | 1011.0 |
| 20260503033002 | 13 | 315 | 1.6 | 6.4 | 0.00 | 0.00 | 0.00 | 79 | 1010.9 |
| 20260503031501 | 13 | 14 | 0.0 | 6.4 | 0.00 | 0.00 | 0.00 | 78 | 1010.7 |
| 20260503030100 | 13 | 30 | 0.0 | 3.2 | 0.00 | 0.00 | 0.00 | 78 | 1010.6 |
| 20260503024600 | 14 | 88 | 3.2 | 9.7 | 0.00 | 0.00 | 0.00 | 77 | 1010.6 |
| 20260503023111 | 15 | 65 | 0.0 | 4.8 | 0.00 | 0.00 | 0.00 | 76 | 1010.4 |
| 20260503021559 | 15 | 78 | 3.2 | 8.0 | 0.00 | 0.00 | 0.00 | 75 | 1010.3 |
| 20260503020058 | 15 | 44 | 0.0 | 3.2 | 0.00 | 0.00 | 0.00 | 75 | 1010.3 |
| 20260503014600 | 15 | 92 | 1.6 | 9.7 | 0.00 | 0.00 | 0.00 | 74 | 1010.3 |
| 20260503013058 | 16 | 291 | 1.6 | 4.8 | 0.00 | 0.00 | 0.00 | 74 | 1010.3 |
| 20260503011604 | 16 | 322 | 3.2 | 4.8 | 0.00 | 0.00 | 0.00 | 72 | 1010.3 |
| 20260503010057 | 16 | 321 | 0.0 | 4.8 | 0.00 | 0.00 | 0.00 | 72 | 1010.3 |
| 20260503004558 | 16 | 317 | 0.0 | 6.4 | 0.00 | 0.00 | 0.00 | 72 | 1010.2 |
| 20260503003056 | 16 | 214 | 0.0 | 8.0 | 0.00 | 0.00 | 0.00 | 72 | 1010.1 |
| 20260503001555 | 17 | 190 | 1.6 | 4.8 | 0.00 | 0.00 | 0.00 | 71 | 1010.2 |
| 20260503000053 | 17 | 280 | 1.6 | 8.0 | 0.00 | 0.00 | 0.00 | 68 | 1010.3 |
| 20260502234558 | 17 | 181 | 1.6 | 9.7 | 0.00 | 0.00 | 0.00 | 69 | 1010.5 |
| 20260502233052 | 17 | 325 | 0.0 | 9.7 | 0.00 | 0.00 | 0.00 | 69 | 1010.6 |
| 20260502231600 | 17 | 303 | 0.0 | 6.4 | 0.00 | 0.00 | 0.00 | 70 | 1010.8 |
| 20260502230044 | 17 | 236 | 1.6 | 8.0 | 0.00 | 0.00 | 0.00 | 69 | 1011.1 |
| 20260502224542 | 17 | 37 | 3.2 | 9.7 | 0.00 | 0.00 | 0.00 | 69 | 1011.5 |
| 20260502223040 | 17 | 189 | 3.2 | 8.0 | 0.00 | 0.00 | 0.00 | 69 | 1011.8 |
| 20260502221537 | 17 | 184 | 3.2 | 9.7 | 0.00 | 0.00 | 0.00 | 69 | 1012.1 |
| 20260502220035 | 17 | 271 | 1.6 | 8.0 | 0.00 | 0.00 | 0.00 | 71 | 1012.4 |
| 20260502214541 | 17 | 269 | 1.6 | 6.4 | 0.00 | 0.00 | 0.00 | 72 | 1012.6 |
| 20260502213033 | 16 | 327 | 1.6 | 4.8 | 0.00 | 0.00 | 0.00 | 74 | 1012.8 |
| 20260502211535 | 15 | 23 | 4.8 | 8.0 | 0.00 | 0.00 | 0.00 | 74 | 1012.8 |
| 20260502210031 | 16 | 360 | 0.0 | 6.4 | 0.00 | 0.00 | 0.00 | 76 | 1012.9 |
| 20260502204528 | 15 | 287 | 3.2 | 8.0 | 0.00 | 0.00 | 0.00 | 76 | 1013.1 |
| 20260502203025 | 15 | 325 | 3.2 | 8.0 | 0.00 | 0.00 | 0.00 | 77 | 1013.4 |
| 20260502201508 | 15 | 346 | 4.8 | 9.7 | 0.00 | 0.00 | 0.00 | 78 | 1013.6 |
| 20260502200004 | 15 | 263 | 0.0 | 6.4 | 0.00 | 0.00 | 0.00 | 79 | 1013.8 |
| 20260502194600 | 15 | 258 | 0.0 | 4.8 | 0.00 | 0.00 | 0.00 | 81 | 1014.0 |